"startDT [UTC]","vpos","CH4 [ppm]","stdev(CH4) [ppm]","CO2 [ppm]","stdev(CO2) [ppm]","H2O_reported [%]","stdev(H2O_reported)","CavityPressure [torr]","CavityTemp [C]","OutletValve","CH4_dry [ppm]","CO2_dry [ppm]","DasTemp [C]","EtalonTemp [C]","WarmBoxTemp [C]","MPVPosition","T_ECpre [C]","T_EC1 [C]","T_EC2 [C]","p_inlet [hPa]","p_in [hPa]","p_out [hPa]","T_inlet [C]","RH_inlet [%]","dwpt_inlet [C]","T_vent [C]","RH_vent [%]","dwpt_vent [C]","flow_vent [l min-1]","flow_inlet [l min-1]","dwpt_sample [C]","T_room [C]"
2016-02-21 00:00:00,3.0,1.88075,0.01486,399.122,2.541,0.0081,0.0102,139.978,45.000,31543.74897,1.88242,399.298,35.183,45.069,45.000,0.00,0.08,-272.76,-272.81,-8,486,-970,22.0,1.0,-37.0,22.2,1.0,-36.1,5.73,1.96,-18.1,28.2
2016-02-21 00:01:00,3.0,1.87638,0.00029,397.001,0.042,0.0022,0.0014,139.998,45.000,31535.11770,1.87642,397.011,35.159,45.069,44.999,0.00,0.08,-272.76,-272.82,-8,487,-970,22.1,0.9,-37.2,22.2,1.0,-36.1,5.73,1.97,-18.1,28.2
2016-02-21 00:02:00,3.0,1.87630,0.00035,397.295,0.106,0.0026,0.0017,140.001,45.000,31534.90088,1.87634,397.301,35.143,45.069,45.000,0.00,0.08,-272.77,-272.82,-8,487,-970,22.0,0.9,-37.4,22.2,1.0,-36.6,5.73,1.97,-18.1,28.2
2016-02-21 00:03:00,3.0,1.87598,0.00043,397.458,0.037,0.0026,0.0017,139.999,45.000,31535.77904,1.87606,397.471,35.137,45.069,45.000,0.00,0.08,-272.76,-272.82,-8,488,-970,22.1,0.9,-37.6,22.2,1.0,-36.6,5.73,1.97,-18.1,28.2
2016-02-21 00:04:00,3.0,1.87589,0.00034,397.487,0.041,0.0025,0.0014,139.999,45.000,31537.19964,1.87592,397.500,35.130,45.070,45.000,0.00,0.08,-272.76,-272.82,-7,488,-970,22.1,0.9,-37.4,22.2,1.0,-36.7,5.73,1.97,-18.1,28.3
2016-02-21 00:05:00,3.0,1.87590,0.00046,397.474,0.030,0.0015,0.0020,140.000,45.000,31537.26633,1.87595,397.481,35.126,45.070,45.000,0.00,0.08,-272.77,-272.82,-7,488,-970,22.1,1.0,-37.0,22.2,1.0,-36.4,5.73,1.97,-18.2,28.3
2016-02-21 00:06:00,3.0,1.87578,0.00047,397.472,0.030,0.0015,0.0016,139.999,45.000,31535.58292,1.87581,397.478,35.126,45.070,45.000,0.00,0.08,-272.76,-272.82,-7,488,-970,22.1,1.0,-37.0,22.2,1.0,-36.2,5.73,1.97,-18.1,28.3
2016-02-21 00:07:00,3.0,1.87590,0.00037,397.460,0.028,0.0015,0.0014,140.000,45.000,31533.90611,1.87592,397.467,35.124,45.070,45.000,0.00,0.08,-272.76,-272.81,-7,488,-970,22.2,1.0,-36.6,22.2,1.1,-35.8,5.73,1.97,-18.2,28.2
2016-02-21 00:08:00,3.0,1.87581,0.00041,397.457,0.030,0.0010,0.0014,139.998,45.000,31535.41481,1.87580,397.462,35.119,45.070,45.000,0.00,0.08,-272.76,-272.82,-7,489,-970,22.1,0.9,-37.2,22.3,1.0,-36.1,5.73,1.96,-18.2,28.3
2016-02-21 00:09:00,3.0,1.87583,0.00034,397.452,0.030,0.0003,0.0018,139.998,45.000,31536.39912,1.87586,397.453,35.080,45.070,45.000,0.00,0.08,-272.77,-272.83,-7,489,-970,22.2,1.0,-36.9,22.3,1.0,-36.3,5.73,1.96,-18.2,28.3
2016-02-21 00:10:00,3.0,1.87556,0.00032,397.444,0.028,0.0006,0.0016,139.999,45.000,31538.46253,1.87559,397.447,35.064,45.070,45.000,0.00,0.08,-272.76,-272.82,-7,489,-970,22.2,1.0,-36.8,22.3,1.0,-36.1,5.73,1.96,-18.2,28.3
2016-02-21 00:11:00,3.0,1.87564,0.00036,397.462,0.036,0.0005,0.0017,140.000,45.000,31538.08888,1.87564,397.464,35.062,45.070,45.000,0.00,0.08,-272.76,-272.82,-8,489,-970,22.3,1.0,-36.6,22.3,1.1,-35.8,5.73,1.96,-18.2,28.3
2016-02-21 00:12:00,3.0,1.87539,0.00035,397.442,0.029,0.0015,0.0020,139.999,45.000,31537.16626,1.87544,397.450,35.062,45.070,45.000,0.00,0.08,-272.76,-272.83,-8,490,-970,22.3,1.0,-36.5,22.3,1.1,-35.9,5.73,1.96,-18.2,28.3
2016-02-21 00:13:00,3.0,1.87573,0.00041,397.458,0.029,0.0003,0.0024,139.999,45.000,31538.21908,1.87570,397.460,35.060,45.070,45.000,0.00,0.08,-272.76,-272.82,-8,490,-970,22.3,1.0,-36.7,22.4,1.1,-35.7,5.73,1.97,-18.2,28.3
2016-02-21 00:14:00,3.0,1.87578,0.00042,397.447,0.038,-0.0004,0.0018,139.999,45.000,31537.48123,1.87578,397.444,35.063,45.070,45.000,0.00,0.08,-272.77,-272.81,-8,490,-970,22.4,1.0,-36.8,22.4,1.1,-35.8,5.73,1.97,-18.2,28.4
2016-02-21 00:15:00,3.0,1.87586,0.00039,397.450,0.026,0.0002,0.0025,140.000,45.000,31537.76557,1.87586,397.452,35.063,45.070,45.000,0.00,0.08,-272.76,-272.82,-8,490,-970,22.4,1.0,-36.7,22.4,1.1,-35.8,5.73,1.97,-18.2,28.4
2016-02-21 00:16:00,3.0,1.87578,0.00034,397.458,0.039,-0.0001,0.0015,139.998,45.000,31537.81295,1.87577,397.456,35.063,45.070,45.000,0.00,0.08,-272.76,-272.82,-8,490,-970,22.4,1.0,-36.4,22.4,1.1,-35.7,5.73,1.97,-18.2,28.4
2016-02-21 00:17:00,3.0,1.87585,0.00046,397.474,0.042,0.0008,0.0017,140.001,45.000,31538.50103,1.87588,397.478,35.064,45.070,45.000,0.00,0.08,-272.76,-272.82,-8,490,-970,22.5,1.0,-36.1,22.5,1.1,-35.2,5.73,1.97,-18.2,28.4
2016-02-21 00:18:00,3.0,1.87584,0.00037,397.485,0.034,0.0002,0.0011,140.000,45.000,31537.24307,1.87585,397.488,35.063,45.070,45.000,0.00,0.08,-272.76,-272.82,-8,490,-970,22.5,1.1,-35.8,22.5,1.1,-35.1,5.73,1.97,-18.2,28.4
2016-02-21 00:19:00,3.0,1.87591,0.00032,397.467,0.033,0.0002,0.0017,139.999,45.000,31539.21817,1.87589,397.468,35.063,45.070,45.000,0.00,0.08,-272.76,-272.82,-7,490,-970,22.5,1.1,-35.6,22.5,1.1,-35.1,5.73,1.97,-18.2,28.4
2016-02-21 00:20:00,0.0,1.91725,0.01348,404.284,2.411,0.0273,0.0126,140.012,45.000,31749.02582,1.91622,404.281,35.061,45.070,45.000,0.00,0.08,-272.76,-272.82,-8,520,-970,22.6,1.1,-35.4,22.6,1.1,-34.9,5.73,1.94,-18.2,28.4
2016-02-21 00:21:00,0.0,1.92194,0.00038,405.202,0.028,0.0361,0.0015,140.001,45.000,31764.52175,1.92261,405.378,35.033,45.070,45.000,0.00,0.08,-272.76,-272.82,-9,521,-970,22.6,1.1,-35.2,22.6,1.2,-34.6,5.73,2.06,-18.2,28.5
2016-02-21 00:22:00,0.0,1.92193,0.00039,405.202,0.027,0.0373,0.0012,140.002,45.000,31771.15644,1.92262,405.383,35.005,45.070,45.000,0.00,0.08,-272.76,-272.82,-9,522,-970,22.6,1.1,-35.4,22.6,1.2,-34.7,5.73,2.10,-18.2,28.5
2016-02-21 00:23:00,0.0,1.92207,0.00029,405.205,0.033,0.0369,0.0022,140.002,45.000,31773.53421,1.92277,405.384,35.000,45.070,45.000,0.00,0.08,-272.76,-272.82,-10,522,-970,22.7,1.1,-35.4,22.6,1.2,-34.7,5.73,2.11,-18.2,28.5
2016-02-21 00:24:00,0.0,1.92210,0.00041,405.199,0.038,0.0361,0.0018,139.997,45.000,31776.72381,1.92275,405.376,35.001,45.070,45.001,0.00,0.08,-272.75,-272.81,-10,522,-970,22.7,1.0,-35.7,22.6,1.2,-34.7,5.73,2.07,-18.2,28.5
2016-02-21 00:25:00,0.0,1.92173,0.00030,405.178,0.026,0.0356,0.0015,139.999,45.000,31781.83179,1.92243,405.351,35.001,45.070,45.000,0.00,0.08,-272.76,-272.82,-9,522,-970,22.7,1.0,-35.8,22.7,1.1,-35.2,5.73,2.02,-18.2,28.5
2016-02-21 00:26:00,0.0,1.92188,0.00034,405.183,0.027,0.0352,0.0015,140.000,45.000,31784.27337,1.92254,405.354,34.998,45.070,45.000,0.00,0.08,-272.76,-272.82,-8,522,-970,22.7,1.0,-36.0,22.7,1.1,-35.1,5.73,1.96,-18.2,28.5
2016-02-21 00:27:00,0.0,1.92178,0.00031,405.180,0.041,0.0351,0.0018,139.999,45.000,31786.17860,1.92245,405.351,34.997,45.070,45.000,0.00,0.08,-272.76,-272.82,-8,522,-970,22.7,1.0,-36.0,22.7,1.1,-34.9,5.73,1.92,-18.2,28.5
2016-02-21 00:28:00,0.0,1.92152,0.00030,405.097,0.026,0.0357,0.0017,140.001,45.000,31788.36001,1.92220,405.272,34.991,45.070,45.000,0.00,0.08,-272.76,-272.82,-9,523,-970,22.7,1.0,-35.8,22.7,1.2,-34.8,5.73,1.91,-18.2,28.5
2016-02-21 00:29:00,0.0,1.92148,0.00028,405.083,0.026,0.0365,0.0018,140.000,45.000,31790.51526,1.92215,405.260,34.965,45.070,45.000,0.00,0.08,-272.77,-272.83,-10,523,-970,22.7,1.1,-35.3,22.7,1.2,-34.8,5.73,1.94,-18.2,28.5
2016-02-21 00:30:00,0.0,1.92159,0.00035,405.106,0.027,0.0365,0.0014,140.002,45.000,31792.21482,1.92230,405.285,34.957,45.070,45.000,0.00,0.08,-272.76,-272.82,-10,522,-970,22.7,1.0,-35.7,22.6,1.2,-34.7,5.73,1.99,-18.2,28.5
2016-02-21 00:31:00,0.0,1.92149,0.00040,405.139,0.044,0.0371,0.0018,140.001,45.000,31791.68573,1.92219,405.318,34.943,45.070,45.000,0.00,0.08,-272.76,-272.81,-9,523,-970,22.7,1.1,-35.5,22.7,1.2,-34.5,5.73,2.06,-18.2,28.5
2016-02-21 00:32:00,0.0,1.92141,0.00039,405.103,0.036,0.0369,0.0020,139.998,45.000,31790.13781,1.92210,405.283,34.938,45.070,45.000,0.00,0.08,-272.77,-272.82,-8,523,-970,22.7,1.1,-35.5,22.7,1.2,-34.7,5.73,2.10,-18.2,28.5
2016-02-21 00:33:00,0.0,1.92159,0.00034,405.177,0.033,0.0367,0.0012,139.998,45.000,31790.79474,1.92228,405.355,34.946,45.070,45.000,0.00,0.08,-272.76,-272.82,-8,523,-970,22.7,1.1,-35.5,22.6,1.2,-34.8,5.73,2.11,-18.2,28.5
2016-02-21 00:34:00,0.0,1.92149,0.00041,405.147,0.038,0.0384,0.0017,139.999,45.000,31793.42871,1.92223,405.333,34.941,45.070,45.000,0.00,0.08,-272.76,-272.82,-9,523,-970,22.7,1.1,-35.1,22.7,1.2,-34.5,5.73,2.08,-18.2,28.5
2016-02-21 00:35:00,0.0,1.92137,0.00040,405.085,0.041,0.0375,0.0017,139.999,44.999,31794.06006,1.92205,405.270,34.939,45.070,45.000,0.00,0.08,-272.76,-272.82,-10,523,-970,22.6,1.1,-35.1,22.6,1.2,-34.3,5.73,2.03,-18.2,28.5
2016-02-21 00:36:00,0.0,1.92181,0.00037,405.096,0.036,0.0365,0.0017,139.999,45.000,31793.61480,1.92250,405.273,34.941,45.070,45.000,0.00,0.08,-272.76,-272.82,-10,523,-970,22.6,1.1,-35.4,22.6,1.2,-34.6,5.73,1.96,-18.2,28.5
2016-02-21 00:37:00,0.0,1.92180,0.00045,405.136,0.058,0.0373,0.0018,139.999,45.000,31792.35050,1.92252,405.318,34.944,45.070,45.000,0.00,0.08,-272.75,-272.82,-9,523,-970,22.6,1.1,-35.5,22.6,1.2,-34.7,5.73,1.93,-18.2,28.5
2016-02-21 00:38:00,0.0,1.92162,0.00031,405.135,0.032,0.0364,0.0013,139.996,45.000,31793.27918,1.92229,405.312,34.941,45.070,45.000,0.00,0.08,-272.76,-272.82,-9,523,-970,22.6,1.1,-35.7,22.6,1.2,-34.8,5.73,1.91,-18.2,28.5
2016-02-21 00:39:00,0.0,1.92178,0.00039,405.080,0.038,0.0358,0.0017,139.999,45.000,31793.00925,1.92245,405.255,34.938,45.070,45.000,0.00,0.08,-272.77,-272.82,-8,523,-970,22.6,1.0,-36.1,22.6,1.1,-34.9,5.73,1.93,-18.2,28.5
2016-02-21 00:40:00,0.0,1.92202,0.00042,405.130,0.032,0.0353,0.0020,140.000,45.000,31792.40572,1.92271,405.302,34.943,45.070,45.000,0.00,0.08,-272.76,-272.82,-9,523,-970,22.5,1.1,-35.8,22.7,1.1,-35.2,5.73,1.99,-18.2,28.4
2016-02-21 00:41:00,0.0,1.92193,0.00038,405.112,0.032,0.0365,0.0021,139.998,45.000,31792.77526,1.92259,405.289,34.948,45.070,45.000,0.00,0.08,-272.76,-272.82,-9,523,-970,22.6,1.0,-36.1,22.7,1.1,-34.9,5.73,2.05,-18.2,28.4
2016-02-21 00:42:00,0.0,1.92188,0.00031,405.098,0.028,0.0358,0.0015,139.999,45.000,31794.66584,1.92257,405.273,34.949,45.070,45.000,0.00,0.08,-272.76,-272.82,-10,523,-970,22.6,1.0,-36.2,22.7,1.1,-34.9,5.73,2.09,-18.2,28.5
2016-02-21 00:43:00,0.0,1.92181,0.00043,405.103,0.020,0.0356,0.0020,139.997,45.000,31795.19733,1.92244,405.276,34.959,45.070,45.000,0.00,0.08,-272.77,-272.82,-10,523,-970,22.5,1.0,-36.1,22.6,1.1,-35.3,5.73,2.11,-18.2,28.5
2016-02-21 00:44:00,0.0,1.92174,0.00040,405.111,0.037,0.0364,0.0022,140.001,45.000,31796.50559,1.92246,405.288,34.968,45.070,45.000,0.00,0.08,-272.76,-272.81,-9,523,-970,22.5,1.1,-35.7,22.5,1.2,-34.7,5.73,2.08,-18.2,28.4
2016-02-21 00:45:00,0.0,1.92170,0.00043,405.152,0.031,0.0364,0.0018,139.997,45.000,31796.42077,1.92240,405.327,34.988,45.069,45.000,0.00,0.08,-272.77,-272.81,-8,523,-970,22.5,1.1,-35.6,22.6,1.1,-35.0,5.73,2.03,-18.2,28.4
2016-02-21 00:46:00,0.0,1.92174,0.00041,405.212,0.029,0.0373,0.0017,139.998,45.000,31795.55427,1.92246,405.395,34.996,45.069,45.000,0.00,0.08,-272.77,-272.82,-9,523,-970,22.5,1.1,-35.5,22.6,1.1,-35.1,5.73,1.97,-18.2,28.4
2016-02-21 00:47:00,0.0,1.92215,0.00032,405.201,0.030,0.0382,0.0025,140.001,45.000,31796.73910,1.92283,405.386,34.999,45.069,44.999,0.00,0.08,-272.76,-272.81,-9,523,-970,22.5,1.1,-35.4,22.5,1.2,-34.8,5.73,1.92,-18.2,28.4
2016-02-21 00:48:00,0.0,1.92211,0.00037,405.221,0.042,0.0389,0.0016,140.001,45.000,31795.95534,1.92287,405.409,34.997,45.069,44.999,0.00,0.08,-272.75,-272.82,-10,523,-970,22.4,1.2,-34.9,22.6,1.2,-34.3,5.73,1.91,-18.2,28.4
2016-02-21 00:49:00,0.0,1.92190,0.00044,405.272,0.034,0.0387,0.0020,139.998,45.000,31792.87209,1.92262,405.460,34.976,45.069,45.000,0.00,0.08,-272.76,-272.82,-10,523,-970,22.4,1.1,-35.2,22.5,1.2,-34.3,5.73,1.93,-18.3,28.4
2016-02-21 00:50:00,0.0,1.92181,0.00050,405.228,0.025,0.0393,0.0013,139.999,45.000,31792.51246,1.92260,405.420,34.945,45.069,45.000,0.00,0.08,-272.76,-272.83,-9,523,-970,22.5,1.1,-35.0,22.5,1.2,-34.3,5.73,1.98,-18.3,28.4
2016-02-21 00:51:00,0.0,1.92170,0.00029,405.247,0.024,0.0387,0.0020,140.001,45.000,31793.40057,1.92239,405.436,34.937,45.070,45.000,0.00,0.08,-272.75,-272.81,-9,523,-970,22.4,1.1,-35.1,22.5,1.2,-34.4,5.73,2.04,-18.2,28.4
2016-02-21 00:52:00,0.0,1.92185,0.00037,405.247,0.034,0.0397,0.0017,139.998,45.000,31791.53761,1.92260,405.439,34.931,45.070,45.000,0.00,0.08,-272.77,-272.82,-8,523,-970,22.4,1.1,-35.0,22.5,1.2,-34.2,5.73,2.09,-18.3,28.3
2016-02-21 00:53:00,0.0,1.92204,0.00043,405.216,0.028,0.0381,0.0018,139.998,45.000,31791.51352,1.92276,405.403,34.925,45.070,45.000,0.00,0.08,-272.77,-272.83,-9,523,-970,22.4,1.1,-35.0,22.5,1.2,-34.4,5.73,2.11,-18.3,28.4
2016-02-21 00:54:00,0.0,1.92237,0.00047,405.217,0.027,0.0397,0.0026,140.000,45.000,31791.02793,1.92312,405.410,34.932,45.070,45.000,0.00,0.08,-272.76,-272.82,-10,523,-970,22.4,1.2,-35.0,22.5,1.2,-34.5,5.73,2.09,-18.3,28.3
2016-02-21 00:55:00,0.0,1.92217,0.00040,405.223,0.037,0.0390,0.0024,140.000,45.000,31791.00814,1.92291,405.413,34.942,45.070,45.000,0.00,0.08,-272.76,-272.82,-10,523,-970,22.3,1.1,-35.3,22.4,1.2,-34.6,5.73,2.04,-18.3,28.3
2016-02-21 00:56:00,0.0,1.92217,0.00047,405.241,0.042,0.0402,0.0019,139.999,45.000,31791.91395,1.92293,405.436,34.940,45.070,45.000,0.00,0.08,-272.77,-272.82,-9,522,-970,22.3,1.2,-34.7,22.5,1.3,-34.1,5.73,1.98,-18.3,28.4
2016-02-21 00:57:00,0.0,1.92234,0.00042,405.216,0.044,0.0402,0.0014,140.002,45.000,31791.75397,1.92311,405.412,34.938,45.070,45.000,0.00,0.08,-272.76,-272.81,-9,522,-970,22.3,1.2,-34.4,22.5,1.3,-34.0,5.73,1.93,-18.3,28.3
2016-02-21 00:58:00,0.0,1.92216,0.00050,405.239,0.032,0.0395,0.0016,139.996,45.000,31789.33019,1.92287,405.431,34.939,45.070,45.000,0.00,0.08,-272.76,-272.81,-8,523,-970,22.3,1.2,-34.9,22.4,1.3,-34.1,5.73,1.91,-18.3,28.3
2016-02-21 00:59:00,0.0,1.92199,0.00050,405.238,0.033,0.0398,0.0018,140.000,45.000,31790.63876,1.92278,405.433,34.938,45.070,45.000,0.00,0.08,-272.77,-272.83,-9,523,-970,22.3,1.2,-34.9,22.4,1.3,-34.0,5.73,1.93,-18.3,28.3
2016-02-21 01:00:00,0.0,1.92161,0.00036,405.211,0.028,0.0402,0.0017,140.001,45.000,31790.21661,1.92238,405.406,34.938,45.070,45.000,0.00,0.08,-272.76,-272.82,-9,523,-970,22.3,1.2,-34.6,22.4,1.3,-34.1,5.73,1.98,-18.3,28.3
2016-02-21 01:01:00,0.0,1.92182,0.00036,405.224,0.030,0.0413,0.0017,139.999,45.000,31791.50164,1.92259,405.425,34.939,45.070,45.000,0.00,0.08,-272.75,-272.82,-10,523,-970,22.3,1.2,-34.3,22.4,1.3,-33.9,5.73,2.04,-18.3,28.3
2016-02-21 01:02:00,0.0,1.92195,0.00029,405.203,0.036,0.0417,0.0017,139.996,45.000,31791.28576,1.92274,405.407,34.939,45.070,45.000,0.00,0.08,-272.76,-272.82,-10,522,-970,22.3,1.2,-34.4,22.4,1.3,-33.6,5.73,2.09,-18.3,28.3
2016-02-21 01:03:00,0.0,1.92196,0.00039,405.256,0.033,0.0432,0.0021,140.001,45.000,31790.75602,1.92277,405.465,34.934,45.070,45.000,0.00,0.08,-272.77,-272.82,-9,522,-970,22.3,1.2,-34.3,22.4,1.4,-33.3,5.73,2.11,-18.3,28.3
2016-02-21 01:04:00,0.0,1.92174,0.00033,405.279,0.036,0.0424,0.0019,139.996,45.000,31788.76881,1.92256,405.486,34.935,45.070,45.000,0.00,0.08,-272.76,-272.82,-8,522,-970,22.2,1.3,-34.0,22.4,1.3,-33.4,5.73,2.09,-18.3,28.3
2016-02-21 01:05:00,0.0,1.92165,0.00038,405.266,0.060,0.0423,0.0014,139.999,45.000,31789.52637,1.92246,405.473,34.932,45.070,45.000,0.00,0.08,-272.76,-272.82,-9,522,-970,22.3,1.3,-33.8,22.4,1.4,-33.1,5.73,2.04,-18.3,28.3
2016-02-21 01:06:00,0.0,1.92177,0.00048,405.215,0.033,0.0423,0.0018,139.999,45.000,31789.84404,1.92255,405.420,34.931,45.070,45.000,0.00,0.08,-272.77,-272.83,-9,522,-970,22.2,1.3,-33.9,22.4,1.4,-33.3,5.73,1.99,-18.3,28.3
2016-02-21 01:07:00,0.0,1.92182,0.00036,405.222,0.019,0.0420,0.0017,139.997,45.000,31788.40131,1.92260,405.426,34.890,45.070,45.000,0.00,0.08,-272.76,-272.82,-10,522,-970,22.2,1.2,-34.3,22.4,1.3,-33.5,5.73,1.93,-18.3,28.3
2016-02-21 01:08:00,0.0,1.92158,0.00042,405.206,0.029,0.0421,0.0019,140.000,45.000,31790.28464,1.92239,405.410,34.876,45.070,45.000,0.00,0.08,-272.76,-272.82,-10,522,-970,22.2,1.3,-34.1,22.4,1.4,-33.3,5.73,1.91,-18.3,28.3
2016-02-21 01:09:00,0.0,1.92163,0.00038,405.220,0.037,0.0435,0.0018,139.998,45.000,31788.83461,1.92245,405.433,34.855,45.070,45.000,0.00,0.08,-272.76,-272.82,-9,522,-970,22.2,1.3,-33.8,22.4,1.4,-33.3,5.73,1.93,-18.3,28.2
2016-02-21 01:10:00,0.0,1.92176,0.00025,405.221,0.034,0.0436,0.0024,139.998,45.000,31787.97168,1.92257,405.433,34.841,45.070,45.001,0.00,0.08,-272.76,-272.82,-9,522,-970,22.2,1.3,-33.7,22.3,1.4,-33.1,5.73,1.98,-18.3,28.2
2016-02-21 01:11:00,0.0,1.92175,0.00035,405.197,0.033,0.0442,0.0016,139.999,45.000,31789.25858,1.92255,405.412,34.864,45.070,45.000,0.00,0.08,-272.76,-272.81,-8,522,-970,22.2,1.3,-33.8,22.4,1.4,-32.9,5.73,2.03,-18.4,28.3
2016-02-21 01:12:00,0.0,1.92176,0.00037,405.226,0.030,0.0444,0.0016,139.999,45.000,31788.66440,1.92263,405.443,34.874,45.070,45.000,0.00,0.08,-272.77,-272.82,-9,522,-970,22.2,1.3,-33.5,22.3,1.4,-33.1,5.73,2.09,-18.4,28.3
2016-02-21 01:13:00,0.0,1.92143,0.00047,405.192,0.032,0.0448,0.0014,139.999,45.000,31789.17006,1.92227,405.411,34.887,45.070,45.000,0.00,0.08,-272.77,-272.83,-10,522,-970,22.2,1.4,-33.4,22.3,1.4,-32.9,5.73,2.10,-18.3,28.3
2016-02-21 01:14:00,0.0,1.92178,0.00037,405.199,0.025,0.0449,0.0019,140.000,45.000,31787.44413,1.92265,405.418,34.913,45.070,45.000,0.00,0.08,-272.76,-272.81,-10,522,-970,22.2,1.4,-33.5,22.3,1.4,-33.0,5.73,2.09,-18.3,28.3
2016-02-21 01:15:00,0.0,1.92151,0.00040,405.156,0.043,0.0437,0.0017,140.000,45.001,31788.12347,1.92232,405.368,34.934,45.070,45.000,0.00,0.08,-272.76,-272.81,-9,522,-970,22.2,1.3,-33.7,22.3,1.4,-33.0,5.73,2.05,-18.3,28.3
2016-02-21 01:16:00,0.0,1.92159,0.00037,405.173,0.036,0.0431,0.0017,140.000,45.000,31789.27232,1.92242,405.385,34.939,45.069,45.000,0.00,0.08,-272.77,-272.82,-9,522,-970,22.2,1.3,-33.9,22.3,1.4,-33.2,5.73,1.99,-18.3,28.3
2016-02-21 01:17:00,0.0,1.92129,0.00052,405.125,0.028,0.0429,0.0016,140.000,45.000,31788.08467,1.92213,405.334,34.938,45.069,44.999,0.00,0.08,-272.77,-272.82,-8,522,-970,22.2,1.3,-33.8,22.3,1.4,-33.2,5.73,1.94,-18.4,28.3
2016-02-21 01:18:00,0.0,1.92124,0.00028,405.099,0.029,0.0423,0.0019,140.001,45.000,31788.17378,1.92201,405.305,34.938,45.069,45.000,0.00,0.08,-272.75,-272.82,-9,522,-970,22.2,1.3,-33.9,22.3,1.4,-33.1,5.73,1.92,-18.4,28.3
2016-02-21 01:19:00,0.0,1.92167,0.00039,405.102,0.028,0.0434,0.0017,139.998,45.000,31785.34716,1.92250,405.313,34.917,45.069,45.000,0.00,0.08,-272.76,-272.83,-9,522,-970,22.2,1.3,-33.9,22.3,1.4,-33.4,5.73,1.93,-18.4,28.2
2016-02-21 01:20:00,0.0,1.92147,0.00031,405.077,0.041,0.0431,0.0019,139.999,45.000,31787.29796,1.92231,405.285,34.880,45.070,45.000,0.00,0.08,-272.76,-272.83,-10,522,-970,22.2,1.3,-34.1,22.3,1.4,-33.1,5.73,1.97,-18.4,28.3
2016-02-21 01:21:00,0.0,1.92155,0.00026,405.120,0.034,0.0439,0.0020,140.001,45.000,31788.26905,1.92237,405.335,34.875,45.070,45.000,0.00,0.08,-272.76,-272.82,-10,522,-970,22.1,1.3,-34.0,22.3,1.4,-33.2,5.73,2.02,-18.4,28.3
2016-02-21 01:22:00,0.0,1.92138,0.00030,405.086,0.027,0.0426,0.0011,139.996,45.000,31786.92149,1.92219,405.293,34.875,45.070,45.000,0.00,0.08,-272.76,-272.82,-9,522,-970,22.2,1.3,-33.7,22.3,1.4,-33.2,5.73,2.07,-18.4,28.3
2016-02-21 01:23:00,0.0,1.92161,0.00052,405.099,0.033,0.0438,0.0015,140.001,45.000,31786.27691,1.92244,405.312,34.875,45.070,45.000,0.00,0.08,-272.77,-272.82,-8,522,-970,22.2,1.3,-33.7,22.3,1.4,-33.2,5.73,2.10,-18.4,28.2
2016-02-21 01:24:00,0.0,1.92190,0.00036,405.118,0.037,0.0430,0.0014,139.998,45.000,31786.20552,1.92269,405.328,34.875,45.070,45.000,0.00,0.08,-272.76,-272.81,-8,522,-970,22.2,1.3,-33.9,22.3,1.4,-33.4,5.73,2.10,-18.4,28.3
2016-02-21 01:25:00,0.0,1.92130,0.00036,405.052,0.039,0.0432,0.0020,139.999,45.000,31787.39840,1.92214,405.264,34.879,45.070,45.000,0.00,0.08,-272.77,-272.81,-9,522,-970,22.2,1.3,-33.8,22.3,1.4,-33.1,5.73,2.07,-18.4,28.3
2016-02-21 01:26:00,0.0,1.92108,0.00029,405.045,0.029,0.0435,0.0012,139.999,45.000,31788.57636,1.92191,405.256,34.889,45.070,45.000,0.00,0.08,-272.77,-272.82,-10,522,-970,22.2,1.3,-34.0,22.3,1.4,-33.3,5.73,2.02,-18.4,28.3
2016-02-21 01:27:00,0.0,1.92105,0.00039,405.039,0.032,0.0434,0.0016,140.002,45.000,31788.94661,1.92188,405.249,34.875,45.070,45.000,0.00,0.08,-272.76,-272.82,-10,522,-970,22.2,1.3,-34.0,22.3,1.4,-33.3,5.73,1.98,-18.4,28.3
2016-02-21 01:28:00,0.0,1.92131,0.00038,405.072,0.035,0.0424,0.0017,139.997,45.000,31786.72823,1.92212,405.278,34.876,45.070,45.000,0.00,0.08,-272.76,-272.81,-9,522,-970,22.3,1.3,-34.1,22.3,1.3,-33.5,5.73,1.93,-18.4,28.3
2016-02-21 01:29:00,0.0,1.92114,0.00035,405.074,0.032,0.0410,0.0016,139.999,45.000,31789.29703,1.92190,405.273,34.877,45.070,45.000,0.00,0.08,-272.76,-272.82,-9,522,-970,22.3,1.2,-34.4,22.3,1.3,-33.5,5.73,1.92,-18.4,28.3
2016-02-21 01:30:00,0.0,1.92116,0.00038,405.075,0.026,0.0410,0.0015,140.000,45.000,31788.54224,1.92195,405.275,34.878,45.070,45.000,0.00,0.08,-272.77,-272.82,-8,522,-970,22.2,1.2,-34.3,22.3,1.3,-33.7,5.73,1.93,-18.4,28.3
2016-02-21 01:31:00,0.0,1.92110,0.00041,405.073,0.035,0.0416,0.0019,139.998,45.000,31789.52931,1.92190,405.275,34.882,45.070,45.000,0.00,0.08,-272.76,-272.82,-8,522,-970,22.3,1.2,-34.4,22.4,1.3,-33.7,5.73,1.96,-18.4,28.3
2016-02-21 01:32:00,0.0,1.92078,0.00035,405.104,0.041,0.0413,0.0014,139.999,45.000,31790.35969,1.92154,405.304,34.903,45.070,45.000,0.00,0.08,-272.76,-272.82,-9,522,-970,22.3,1.2,-34.6,22.3,1.3,-33.9,5.73,2.01,-18.4,28.3
2016-02-21 01:33:00,0.0,1.92084,0.00039,405.076,0.041,0.0410,0.0022,140.001,45.000,31791.13399,1.92163,405.278,34.935,45.070,45.000,0.00,0.08,-272.76,-272.82,-10,522,-970,22.2,1.2,-34.6,22.3,1.3,-34.0,5.73,2.05,-18.4,28.3
2016-02-21 01:34:00,0.0,1.92079,0.00036,405.042,0.041,0.0408,0.0015,140.001,45.000,31791.03163,1.92154,405.237,34.939,45.070,45.000,0.00,0.08,-272.76,-272.82,-10,522,-970,22.2,1.2,-34.6,22.3,1.3,-33.8,5.73,2.08,-18.4,28.3
2016-02-21 01:35:00,0.0,1.92093,0.00028,405.079,0.031,0.0411,0.0015,139.999,45.000,31791.06047,1.92172,405.281,34.938,45.070,45.000,0.00,0.08,-272.76,-272.82,-9,522,-970,22.3,1.2,-34.3,22.3,1.3,-33.5,5.73,2.09,-18.4,28.3
2016-02-21 01:36:00,0.0,1.92137,0.00036,405.106,0.038,0.0418,0.0016,139.999,45.000,31788.33348,1.92214,405.307,34.938,45.070,45.000,0.00,0.08,-272.77,-272.82,-9,522,-970,22.2,1.3,-34.1,22.3,1.4,-33.4,5.73,2.08,-18.4,28.3
2016-02-21 01:37:00,0.0,1.92112,0.00039,405.098,0.035,0.0422,0.0017,139.997,45.000,31788.98277,1.92193,405.305,34.935,45.070,45.000,0.00,0.08,-272.77,-272.82,-8,522,-970,22.3,1.2,-34.4,22.3,1.3,-33.7,5.73,2.04,-18.4,28.3
2016-02-21 01:38:00,0.0,1.92096,0.00025,405.085,0.043,0.0406,0.0024,139.997,45.000,31788.93942,1.92173,405.283,34.918,45.070,45.000,0.00,0.08,-272.76,-272.81,-8,522,-970,22.2,1.2,-34.3,22.3,1.3,-34.1,5.73,2.00,-18.4,28.4
2016-02-21 01:39:00,0.0,1.92125,0.00032,405.137,0.031,0.0393,0.0017,140.000,45.000,31786.54985,1.92198,405.327,34.877,45.070,45.000,0.00,0.08,-272.76,-272.82,-9,522,-970,22.2,1.2,-34.9,22.3,1.3,-34.1,5.73,1.97,-18.4,28.3
2016-02-21 01:40:00,0.0,1.92100,0.00027,405.110,0.037,0.0395,0.0015,139.999,45.000,31788.51739,1.92175,405.302,34.875,45.070,45.000,0.00,0.08,-272.76,-272.83,-10,522,-970,22.2,1.2,-34.9,22.3,1.3,-34.0,5.73,1.94,-18.4,28.3
2016-02-21 01:41:00,0.0,1.92122,0.00061,405.105,0.034,0.0408,0.0014,139.999,45.000,31788.32677,1.92203,405.303,34.845,45.070,45.001,0.00,0.08,-272.76,-272.81,-10,522,-970,22.2,1.2,-34.6,22.3,1.3,-34.0,5.73,1.93,-18.4,28.3
2016-02-21 01:42:00,0.0,1.92169,0.00052,405.149,0.028,0.0421,0.0011,139.999,45.000,31787.50012,1.92245,405.354,34.820,45.070,45.001,0.00,0.08,-272.76,-272.82,-9,522,-970,22.2,1.3,-34.2,22.3,1.3,-33.6,5.73,1.95,-18.4,28.3
2016-02-21 01:43:00,0.0,1.92122,0.00024,405.094,0.032,0.0420,0.0015,140.000,45.000,31787.28304,1.92201,405.301,34.819,45.071,45.001,0.00,0.08,-272.77,-272.83,-9,522,-970,22.2,1.3,-34.0,22.3,1.4,-33.3,5.73,1.98,-18.4,28.3
2016-02-21 01:44:00,0.0,1.92106,0.00033,405.096,0.029,0.0431,0.0018,139.999,45.000,31786.76741,1.92190,405.303,34.860,45.071,45.001,0.00,0.08,-272.75,-272.82,-8,522,-970,22.2,1.2,-34.3,22.3,1.4,-33.4,5.73,2.01,-18.4,28.3
2016-02-21 01:45:00,0.0,1.92084,0.00033,405.104,0.033,0.0449,0.0019,139.997,45.000,31787.02449,1.92166,405.323,34.886,45.070,45.000,0.00,0.08,-272.76,-272.82,-9,522,-970,22.2,1.3,-33.7,22.2,1.4,-33.2,5.73,2.05,-18.4,28.3